[[{"header":{"parameterUnit":"m.s-1","parameterCategory":2,"la1":30.2991,"la2":30.254,"lo1":-89.0895,"lo2":-89.0444,"dy":0.0017,"dx":0.0017,"nx":28,"ny":28,"refTime":"2023-09-06T21:00:00:Z","depth":"0","parameterNumber":2,"parameterNumberName":"U-component_of_CURRENTS"},"data":[0,0,0,0,0,0,0,0,0,0,0,0,0,0,0,0,0,0,0,0,0,0,0,0,0,0,0,0,0,0,0,0,0,0,0,0,0,0,0,0,0,0,0,0,0,0,0,0,0,0,0,0,0,0,0,0,0,0,0.3258,0.3259,0,0.3284,0.3284,0.3285,0.3293,0.3293,0.3293,0.3293,0.3302,0.3303,0.3303,0,0,0,0,0,0,0,0,0,0,0,0,0,0.3225,0.3226,0.3258,0.3259,0.3259,0.3284,0.3284,0.3285,0.3293,0.3293,0.3293,0.3293,0.3302,0.3302,0.3303,0,0,0,0,0,0,0,0,0,0,0,0,0,0.3243,0.3226,0.3258,0.3267,0.3268,0.3284,0.3284,0.3285,0.3293,0.3293,0.3293,0.3293,0.3302,0.3302,0.3303,0.3305,0,0,0.3304,0.3304,0,0,0,0,0,0,0,0,0.3242,0.3244,0.3266,0.3267,0.3268,0.3286,0.3276,0.3291,0.3293,0.3282,0.3293,0.3293,0.3296,0.3297,0.33,0.3305,0.3306,0.3304,0.3304,0.3304,0.3305,0,0,0,0,0,0,0,0.3241,0.3243,0.3267,0.3266,0.3268,0.3273,0.3276,0.3279,0.3288,0.3283,0.3284,0.3289,0.3297,0.33,0.3301,0.3306,0.3304,0.3304,0.3305,0.3305,0.3356,0.3357,0,0,0,0,0,0,0.324,0.3242,0.3266,0.3268,0.3256,0.3274,0.3276,0.3279,0.3288,0.329,0.3289,0.3289,0.3299,0.33,0.3301,0.335,0.3304,0.3305,0.3305,0.3355,0.3356,0.3357,0,0,0,0,0,0,0.3239,0.3242,0.3265,0.3257,0.326,0.3275,0.3278,0.328,0.3287,0.3293,0.3294,0.3294,0.3299,0.33,0.3318,0.3348,0.3305,0.3305,0.3353,0.3355,0.3357,0.3418,0,0,0,0,0,0,0.3238,0.3241,0.3241,0.3257,0.3261,0.3278,0.3278,0.3281,0.329,0.3291,0.3298,0.3299,0.3299,0.3317,0.3318,0.3348,0.3306,0.3352,0.3354,0.3356,0.3415,0.3422,0.3428,0,0,0,0,0,0.3236,0.3232,0.3241,0.3244,0.3261,0.3278,0.3281,0.329,0.3291,0.3296,0.3307,0.3298,0.3331,0.3318,0.3319,0.335,0.3351,0.3354,0.3356,0.3412,0.342,0.3428,0,0,0,0,0,0,0.3205,0.3233,0.3243,0.3244,0.3264,0.328,0.3281,0.3292,0.3304,0.3303,0.3309,0.3311,0.3336,0.3333,0.3318,0.3371,0.3341,0.3344,0.3383,0.3391,0.3398,0.3404,0.3306,0,0,0,0,0,0.3203,0.3211,0.3239,0.3238,0.3248,0.3267,0.3274,0.3284,0.3298,0.3303,0.3317,0.333,0.3346,0.336,0.3365,0.3394,0.3406,0.3416,0.3422,0.3428,0.3434,0.3469,0.3479,0.3366,0.3366,0.3366,0,0,0.3185,0.3205,0.3206,0.3233,0.3245,0.3273,0.327,0.3281,0.3319,0.3302,0.3348,0.3345,0.3355,0.339,0.3402,0.3394,0.3472,0.3431,0.3436,0.3439,0.3472,0.3484,0.3493,0.3367,0.3367,0.3367,0,0,0.3178,0.3178,0.3198,0.3215,0.3244,0.3264,0.3271,0.33,0.3327,0.3366,0.3367,0.3387,0.3413,0.3436,0.3449,0.3494,0.3496,0.3494,0.3545,0.3579,0.3589,0.3598,0.3652,0.3665,0.3508,0.3509,0.3509,0,0.316,0.3193,0.3203,0.3231,0.3247,0.3266,0.3294,0.3329,0.3365,0.3396,0.3387,0.3433,0.3441,0.3493,0.3517,0.3511,0.3533,0.3516,0.3589,0.3597,0.3605,0.3658,0.3672,0.3512,0.3511,0.3511,0.3511,0,0.318,0.3206,0.3212,0.3264,0.328,0.3298,0.3348,0.3385,0.3415,0.3451,0.35,0.3509,0.3535,0.355,0.3553,0.3615,0.3615,0.3585,0.357,0.362,0.3673,0.3686,0.3516,0.3515,0.3514,0.3514,0,0,0.3146,0.3218,0.3222,0.3254,0.3297,0.3313,0.3381,0.3451,0.3501,0.3537,0.3594,0.3634,0.3624,0.3637,0.3636,0.368,0.3767,0.3665,0.3665,0.3722,0.3863,0.3896,0.3913,0.3748,0.375,0.3751,0.3888,0,0.3167,0.3235,0.3261,0.3312,0.3349,0.338,0.3438,0.3496,0.3553,0.3613,0.3641,0.3676,0.3664,0.3668,0.3711,0.3742,0.3799,0.3734,0.3803,0.3806,0.3831,0.3928,0.3736,0.3844,0.39,0.3902,0.3904,0,0.3178,0.3234,0.3289,0.3358,0.3372,0.34,0.3481,0.3538,0.3628,0.3669,0.3709,0.3717,0.3782,0.3748,0.385,0.3808,0.3847,0.3875,0.388,0.3895,0.3862,0.3797,0.3865,0.3787,0.3924,0.3922,0.3921,0,0.3154,0.3243,0.3289,0.3305,0.3386,0.3417,0.3465,0.3551,0.3605,0.3696,0.3736,0.3789,0.3827,0.3869,0.3941,0.3894,0.4061,0.3994,0.4067,0.407,0.3913,0.39,0.3911,0.4075,0.4074,0.4074,0.4073,0,0.3151,0.3188,0.3283,0.3298,0.3354,0.3406,0.3467,0.3534,0.3616,0.3682,0.3745,0.3812,0.386,0.3952,0.3982,0.4095,0.4098,0.4109,0.4117,0.3934,0.3921,0.3849,0.3812,0.4079,0.4078,0.4077,0.4076,0,0.3098,0.3159,0.3212,0.3306,0.3333,0.3364,0.345,0.3502,0.3599,0.3685,0.3709,0.3848,0.3994,0.4068,0.4175,0.4173,0.4148,0.4289,0.4094,0.4077,0.4039,0.4012,0.3906,0.3792,0.4371,0.4373,0.4375,0,0.3074,0.3102,0.3192,0.3218,0.3254,0.332,0.3363,0.3468,0.353,0.3716,0.3756,0.3935,0.4039,0.4242,0.4281,0.4366,0.4245,0.4253,0.4126,0.4053,0.4027,0.3855,0.3752,0.3946,0.3943,0.3942,0.394,0,0.3034,0.3059,0.3101,0.316,0.3201,0.3259,0.3342,0.3375,0.3514,0.3599,0.3737,0.383,0.4069,0.4098,0.4264,0.4276,0.4042,0.4224,0.4165,0.3735,0.3524,0.3411,0.3867,0.3925,0.3926,0.3927,0.3928,0.3929,0.2983,0.3003,0.3053,0.3089,0.314,0.3179,0.3174,0.3276,0.3339,0.3423,0.3612,0.3697,0.3868,0.4067,0.4088,0.4027,0.3994,0.3895,0.3885,0.3733,0.3557,0.4026,0.4084,0.4086,0.4088,0.409,0.4092,0,0.2916,0.295,0.2988,0.3012,0.301,0.3077,0.3135,0.3102,0.312,0.3269,0.3346,0.3475,0.3554,0.3695,0.377,0.3684,0.3447,0.3601,0.3263,0.3191,0.3622,0.354,0.3459,0.3459,0.3459,0.3459,0.3459,0.3459,0.2884,0.2883,0.2903,0.2866,0.2878,0.2825,0.2819,0.2805,0.2869,0.2905,0.2964,0.3079,0.3354,0.353,0.3505,0.3414,0.3163,0.3023,0.3057,0.3331,0.3354,0.3376,0.3289,0.3157,0.3157,0.2417,0.2412,0.2408]},{"header":{"parameterUnit":"m.s-1","parameterCategory":2,"la1":30.2991,"la2":30.254,"lo1":-89.0895,"lo2":-89.0444,"dy":0.0017,"dx":0.0017,"nx":28,"ny":28,"refTime":"2023-09-06T21:00:00:Z","depth":"0","parameterNumber":3,"parameterNumberName":"V-component_of_CURRENTS"},"data":[0,0,0,0,0,0,0,0,0,0,0,0,0,0,0,0,0,0,0,0,0,0,0,0,0,0,0,0,0,0,0,0,0,0,0,0,0,0,0,0,0,0,0,0,0,0,0,0,0,0,0,0,0,0,0,0,0,0,-0.0924,-0.0924,0,-0.0986,-0.0988,-0.0989,-0.1016,-0.1015,-0.1014,-0.1014,-0.1091,-0.1094,-0.1097,0,0,0,0,0,0,0,0,0,0,0,0,0,-0.0871,-0.0872,-0.0924,-0.0924,-0.0924,-0.0986,-0.0988,-0.0989,-0.1016,-0.1015,-0.1014,-0.1013,-0.1091,-0.1094,-0.1097,0,0,0,0,0,0,0,0,0,0,0,0,0,-0.0915,-0.0872,-0.0924,-0.0941,-0.0942,-0.0986,-0.0988,-0.0989,-0.1016,-0.1015,-0.1014,-0.1013,-0.1089,-0.1093,-0.1097,-0.1142,0,0,-0.111,-0.1111,0,0,0,0,0,0,0,0,-0.0912,-0.0918,-0.0938,-0.0939,-0.0941,-0.0987,-0.0997,-0.1039,-0.1016,-0.0994,-0.1014,-0.1013,-0.1055,-0.1062,-0.1084,-0.1145,-0.1149,-0.111,-0.1112,-0.1114,-0.1115,0,0,0,0,0,0,0,-0.0909,-0.0915,-0.0954,-0.0938,-0.094,-0.096,-0.0965,-0.1006,-0.1034,-0.0996,-0.0997,-0.0995,-0.1057,-0.108,-0.1086,-0.115,-0.111,-0.1113,-0.1116,-0.1117,-0.1213,-0.1213,0,0,0,0,0,0,-0.0889,-0.0912,-0.0952,-0.0956,-0.0918,-0.0961,-0.0967,-0.0978,-0.1033,-0.1039,-0.0995,-0.0995,-0.1073,-0.1081,-0.1088,-0.1104,-0.1114,-0.1118,-0.112,-0.1213,-0.1213,-0.1213,0,0,0,0,0,0,-0.0888,-0.0892,-0.095,-0.093,-0.0938,-0.0962,-0.0974,-0.098,-0.0993,-0.1031,-0.1038,-0.1001,-0.1073,-0.1083,-0.1111,-0.1108,-0.112,-0.1123,-0.1212,-0.1213,-0.1213,-0.116,0,0,0,0,0,0,-0.0886,-0.0892,-0.0895,-0.0929,-0.0938,-0.0956,-0.0975,-0.0981,-0.0991,-0.0992,-0.1039,-0.1046,-0.1073,-0.1105,-0.1115,-0.1114,-0.1126,-0.1212,-0.1213,-0.1213,-0.1162,-0.1158,-0.1156,0,0,0,0,0,-0.0884,-0.0888,-0.0896,-0.09,-0.0941,-0.0955,-0.0962,-0.0979,-0.0992,-0.0991,-0.1025,-0.1044,-0.1114,-0.1109,-0.1121,-0.112,-0.1212,-0.1213,-0.1213,-0.1163,-0.1159,-0.1156,0,0,0,0,0,0,-0.0867,-0.0892,-0.0901,-0.0912,-0.0922,-0.0956,-0.0959,-0.0976,-0.1007,-0.1001,-0.1051,-0.106,-0.1083,-0.1112,-0.1106,-0.1149,-0.1165,-0.1167,-0.1123,-0.112,-0.1117,-0.1069,-0.113,0,0,0,0,0,-0.0864,-0.0872,-0.0894,-0.0899,-0.0904,-0.0933,-0.0943,-0.0946,-0.0974,-0.0986,-0.103,-0.1068,-0.1098,-0.1114,-0.1148,-0.1177,-0.1175,-0.1183,-0.118,-0.1177,-0.1147,-0.1156,-0.1151,-0.1214,-0.1214,-0.1214,0,0,-0.0857,-0.0871,-0.0874,-0.0895,-0.091,-0.0896,-0.0938,-0.0934,-0.093,-0.099,-0.1017,-0.1061,-0.1104,-0.1129,-0.1142,-0.115,-0.1158,-0.1178,-0.1175,-0.1146,-0.1156,-0.115,-0.1144,-0.1214,-0.1214,-0.1214,0,0,-0.0829,-0.0859,-0.0847,-0.0842,-0.0842,-0.0866,-0.0859,-0.0892,-0.0916,-0.0941,-0.0982,-0.102,-0.1081,-0.1109,-0.1129,-0.1132,-0.1142,-0.1149,-0.1096,-0.1106,-0.11,-0.1095,-0.1076,-0.107,-0.1147,-0.1147,-0.1147,0,-0.0812,-0.08,-0.0843,-0.0811,-0.0791,-0.0845,-0.0803,-0.0844,-0.0884,-0.0902,-0.0933,-0.1013,-0.1066,-0.108,-0.1085,-0.1123,-0.1116,-0.1106,-0.1099,-0.1094,-0.109,-0.1072,-0.1065,-0.1145,-0.1145,-0.1145,-0.1145,0,-0.075,-0.074,-0.0729,-0.0711,-0.0704,-0.0677,-0.0713,-0.0742,-0.0788,-0.0824,-0.0863,-0.0939,-0.0979,-0.1015,-0.1054,-0.1052,-0.1052,-0.1093,-0.1101,-0.108,-0.1063,-0.1057,-0.1141,-0.1142,-0.1143,-0.1143,0,0,-0.0679,-0.0689,-0.067,-0.0646,-0.0635,-0.0621,-0.0631,-0.0652,-0.0652,-0.0729,-0.0728,-0.082,-0.0868,-0.0893,-0.0956,-0.0974,-0.096,-0.1013,-0.1015,-0.0979,-0.0949,-0.0888,-0.0876,-0.0997,-0.0996,-0.0996,-0.0946,0,-0.0602,-0.0542,-0.0558,-0.0487,-0.0455,-0.0493,-0.0493,-0.0516,-0.0574,-0.0603,-0.0694,-0.0722,-0.0821,-0.0834,-0.0872,-0.0932,-0.0942,-0.0967,-0.0986,-0.0986,-0.0923,-0.0867,-0.0819,-0.0765,-0.094,-0.0939,-0.0939,0,-0.0484,-0.0474,-0.0393,-0.0377,-0.0363,-0.0335,-0.0326,-0.0327,-0.0392,-0.0435,-0.0489,-0.0568,-0.0618,-0.0706,-0.0779,-0.0787,-0.0853,-0.0905,-0.0906,-0.0855,-0.0913,-0.0819,-0.0748,-0.0944,-0.093,-0.093,-0.0931,0,-0.0362,-0.0335,-0.0275,-0.0253,-0.0253,-0.0234,-0.0238,-0.027,-0.0255,-0.0318,-0.0307,-0.0409,-0.0431,-0.0534,-0.0665,-0.0718,-0.0719,-0.0816,-0.0817,-0.0813,-0.0775,-0.0769,-0.0879,-0.0848,-0.0848,-0.0848,-0.0849,0,-0.0234,-0.0184,-0.0223,-0.0174,-0.0111,-0.0129,-0.0061,-0.0098,-0.01,-0.0037,-0.02,-0.0157,-0.0389,-0.0439,-0.0581,-0.0644,-0.0656,-0.0766,-0.0785,-0.0755,-0.0748,-0.0921,-0.104,-0.0847,-0.0847,-0.0847,-0.0848,0,-0.0098,-0.0109,-0.0045,-0.0049,-0.0042,0.0015,0.0057,0.0103,0.0078,0.0164,0.0158,0.0048,-0.0009,-0.0209,-0.0357,-0.0502,-0.0673,-0.0622,-0.0552,-0.0562,-0.0767,-0.0882,-0.0946,-0.1017,-0.0618,-0.0616,-0.0614,0,-0.0034,0.0014,0.0054,0.0107,0.0108,0.0167,0.0223,0.0204,0.0267,0.0324,0.0391,0.0333,0.0342,0.0148,-0.012,-0.0319,-0.0549,-0.0437,-0.0547,-0.0728,-0.0873,-0.0967,-0.1031,-0.0483,-0.048,-0.0478,-0.0476,0,0.0069,0.0094,0.0134,0.0242,0.0314,0.0392,0.0461,0.054,0.0571,0.0661,0.0788,0.0808,0.0607,0.0415,0.0097,-0.0068,-0.0551,-0.0398,-0.0618,-0.0775,-0.0851,-0.0944,-0.0561,-0.0457,-0.0459,-0.0461,-0.0462,-0.0462,0.014,0.019,0.0263,0.0376,0.0475,0.0614,0.0711,0.0812,0.0973,0.1143,0.1132,0.1239,0.0874,0.0457,0.0176,-0.0339,-0.0387,-0.0532,-0.0652,-0.0727,-0.0806,-0.0348,-0.0254,-0.0254,-0.0255,-0.0256,-0.0256,0,0.022,0.028,0.0385,0.0535,0.0686,0.0703,0.0874,0.0996,0.123,0.1417,0.1555,0.15,0.1059,0.0544,-0.0149,-0.0543,-0.0729,-0.0779,-0.095,-0.1005,-0.0619,-0.0626,-0.0568,-0.0568,-0.0568,-0.0568,-0.0567,-0.0567,0.0263,0.0381,0.0437,0.0694,0.0811,0.1004,0.1119,0.1315,0.1482,0.1775,0.1899,0.1939,0.1553,0.0237,-0.0692,-0.0913,-0.1228,-0.125,-0.1433,-0.1243,-0.1232,-0.1222,-0.126,-0.1335,-0.1336,-0.1771,-0.1775,-0.1779]}],[{"header":{"parameterUnit":"m.s-1","parameterCategory":2,"la1":30.2991,"la2":30.254,"lo1":-89.0895,"lo2":-89.0444,"dy":0.0017,"dx":0.0017,"nx":28,"ny":28,"refTime":"2023-09-06T21:00:00:Z","depth":"2","parameterNumber":2,"parameterNumberName":"U-component_of_CURRENTS"},"data":[0,0,0,0,0,0,0,0,0,0,0,0,0,0,0,0,0,0,0,0,0,0,0,0,0,0,0,0,0,0,0,0,0,0,0,0,0,0,0,0,0,0,0,0,0,0,0,0,0,0,0,0,0,0,0,0,0,0,0.2369,0.2369,0,0.2378,0.2378,0.2379,0.2436,0.2437,0.2438,0.2439,0.2463,0.2463,0.2462,0,0,0,0,0,0,0,0,0,0,0,0,0,0.2231,0.2235,0.2369,0.2369,0.2368,0.2378,0.2378,0.2379,0.2436,0.2437,0.2438,0.2439,0.2463,0.2463,0.2462,0,0,0,0,0,0,0,0,0,0,0,0,0,0.2276,0.2236,0.2369,0.2394,0.2395,0.2378,0.2378,0.2379,0.2436,0.2437,0.2439,0.244,0.2463,0.2463,0.2462,0.2435,0,0,0.2462,0.2461,0,0,0,0,0,0,0,0,0.2274,0.2282,0.239,0.2392,0.2394,0.2402,0.2338,0.2397,0.2436,0.2427,0.2439,0.244,0.2439,0.2441,0.2448,0.2436,0.2437,0.2462,0.2461,0.2461,0.2461,0,0,0,0,0,0,0,0.2271,0.2281,0.2379,0.239,0.2392,0.2345,0.2355,0.2349,0.243,0.2428,0.243,0.2422,0.2441,0.2448,0.2449,0.2437,0.2462,0.2461,0.2461,0.2461,0.2509,0.251,0,0,0,0,0,0,0.2267,0.228,0.2378,0.2378,0.2329,0.2347,0.2358,0.2403,0.243,0.2434,0.242,0.2424,0.2448,0.2449,0.245,0.2515,0.2461,0.2461,0.2461,0.2507,0.2509,0.2511,0,0,0,0,0,0,0.2265,0.2278,0.2378,0.232,0.2329,0.2348,0.2397,0.2402,0.2432,0.2423,0.2429,0.2447,0.2449,0.245,0.2476,0.2512,0.2461,0.2461,0.2506,0.2508,0.251,0.2583,0,0,0,0,0,0,0.2262,0.2278,0.2332,0.2322,0.2332,0.238,0.2396,0.2401,0.242,0.2426,0.2447,0.2449,0.245,0.2476,0.2475,0.2511,0.2461,0.2504,0.2507,0.2509,0.2578,0.2587,0.2594,0,0,0,0,0,0.2258,0.2274,0.2336,0.2348,0.2401,0.2379,0.2381,0.24,0.242,0.2433,0.2459,0.245,0.2493,0.2477,0.2476,0.2512,0.2503,0.2506,0.2509,0.2575,0.2585,0.2594,0,0,0,0,0,0,0.2236,0.2282,0.2348,0.2387,0.2406,0.2387,0.2383,0.2408,0.2439,0.2456,0.246,0.2464,0.2511,0.2492,0.2474,0.2534,0.2499,0.2502,0.2549,0.2559,0.2567,0.2608,0.246,0,0,0,0,0,0.2265,0.2307,0.2337,0.2379,0.2378,0.2399,0.2401,0.2424,0.2431,0.2448,0.2457,0.2479,0.2517,0.2523,0.2543,0.2556,0.2573,0.2581,0.2589,0.2596,0.263,0.2701,0.2719,0.2521,0.2521,0.2521,0,0,0.2266,0.23,0.2328,0.2379,0.2389,0.2413,0.2404,0.2406,0.2461,0.2442,0.25,0.251,0.2531,0.2571,0.2588,0.256,0.2653,0.26,0.2606,0.2637,0.2706,0.2726,0.2743,0.2523,0.2523,0.2523,0,0,0.2255,0.2323,0.235,0.2372,0.2403,0.2418,0.2426,0.2432,0.2472,0.2521,0.2541,0.2574,0.2596,0.2628,0.265,0.2706,0.2705,0.2704,0.2765,0.2833,0.2851,0.2867,0.2882,0.2899,0.2694,0.2694,0.2694,0,0.2273,0.2325,0.2347,0.2377,0.2393,0.2426,0.2452,0.2499,0.2527,0.2561,0.2552,0.2632,0.2637,0.2719,0.275,0.2728,0.2752,0.2726,0.2846,0.2863,0.2878,0.289,0.2908,0.2698,0.2697,0.2697,0.2697,0,0.2283,0.2338,0.2328,0.2416,0.244,0.2445,0.251,0.2559,0.2601,0.2645,0.2726,0.2738,0.2779,0.2789,0.2795,0.29,0.2877,0.286,0.2826,0.2903,0.2909,0.2926,0.2703,0.2702,0.2701,0.27,0,0,0.2279,0.2334,0.2342,0.2386,0.2457,0.2469,0.2569,0.2646,0.2713,0.2769,0.2841,0.2915,0.291,0.2935,0.2932,0.2996,0.3105,0.2982,0.2983,0.3004,0.3236,0.3136,0.3144,0.312,0.3124,0.3127,0.3186,0,0.2288,0.234,0.2372,0.2436,0.2456,0.2528,0.2616,0.2713,0.2774,0.285,0.2915,0.2982,0.2971,0.2989,0.3056,0.3087,0.316,0.3089,0.3154,0.3156,0.3065,0.3165,0.2933,0.2961,0.3202,0.3205,0.3207,0,0.2287,0.2326,0.2379,0.2456,0.2472,0.2526,0.2648,0.2737,0.2874,0.2924,0.3003,0.3044,0.314,0.3126,0.3244,0.3201,0.3249,0.3279,0.3281,0.3186,0.309,0.293,0.2982,0.3236,0.3233,0.3231,0.3229,0,0.2249,0.232,0.2361,0.239,0.2497,0.2544,0.2614,0.2749,0.2832,0.2972,0.303,0.3129,0.3188,0.3271,0.3326,0.3302,0.3459,0.3409,0.3373,0.3362,0.3178,0.3145,0.3557,0.3557,0.3557,0.3557,0.3557,0,0.2218,0.2252,0.2345,0.2365,0.2438,0.2525,0.2614,0.2709,0.2843,0.2937,0.3054,0.3133,0.3247,0.3334,0.3368,0.3409,0.3485,0.3422,0.3398,0.3189,0.3159,0.3409,0.3391,0.3559,0.3558,0.3558,0.3558,0,0.2156,0.2218,0.2277,0.2383,0.2413,0.2477,0.2603,0.2667,0.2814,0.2937,0.2996,0.3165,0.3272,0.336,0.3485,0.3452,0.3503,0.3519,0.3242,0.3185,0.3343,0.3328,0.3456,0.3454,0.3451,0.345,0.3448,0,0.2144,0.2155,0.227,0.2308,0.2344,0.2439,0.2496,0.2642,0.2707,0.2941,0.2987,0.3167,0.3234,0.3351,0.3379,0.3415,0.3507,0.3213,0.3136,0.3383,0.3346,0.3334,0.3322,0.29,0.2894,0.289,0.2886,0,0.2093,0.2129,0.2172,0.2252,0.2308,0.2385,0.2466,0.25,0.2685,0.2774,0.289,0.2968,0.3135,0.3071,0.3163,0.3151,0.3168,0.3115,0.3486,0.2958,0.2863,0.2825,0.2831,0.2843,0.2848,0.2851,0.2853,0.2855,0.2054,0.2073,0.2121,0.2191,0.2251,0.2288,0.2291,0.2372,0.2442,0.2541,0.2695,0.2736,0.2836,0.2834,0.2784,0.2772,0.2981,0.2852,0.2865,0.2884,0.2805,0.2713,0.2647,0.265,0.2652,0.2655,0.2657,0,0.195,0.198,0.2045,0.2106,0.2109,0.2198,0.2233,0.2197,0.2179,0.2332,0.2392,0.2271,0.2283,0.2394,0.2322,0.2335,0.2299,0.2235,0.2177,0.2223,0.2263,0.215,0.1819,0.1816,0.1813,0.181,0,0,0.1902,0.1903,0.194,0.1936,0.1973,0.1935,0.1917,0.1883,0.1928,0.1901,0.1936,0.2161,0.2303,0.2016,0.2012,0.1898,0.2027,0.1822,0.2505,0.2481,0.2516,0.2643,0.2526,0,0,0,0,0]},{"header":{"parameterUnit":"m.s-1","parameterCategory":2,"la1":30.2991,"la2":30.254,"lo1":-89.0895,"lo2":-89.0444,"dy":0.0017,"dx":0.0017,"nx":28,"ny":28,"refTime":"2023-09-06T21:00:00:Z","depth":"2","parameterNumber":3,"parameterNumberName":"V-component_of_CURRENTS"},"data":[0,0,0,0,0,0,0,0,0,0,0,0,0,0,0,0,0,0,0,0,0,0,0,0,0,0,0,0,0,0,0,0,0,0,0,0,0,0,0,0,0,0,0,0,0,0,0,0,0,0,0,0,0,0,0,0,0,0,0.0283,0.028,0,0.0077,0.0076,0.0074,-0.0005,-0.0006,-0.0006,-0.0007,-0.0132,-0.0135,-0.0138,0,0,0,0,0,0,0,0,0,0,0,0,0,0.045,0.045,0.0284,0.028,0.0276,0.0077,0.0075,0.0074,-0.0005,-0.0006,-0.0006,-0.0007,-0.0131,-0.0135,-0.0138,0,0,0,0,0,0,0,0,0,0,0,0,0,0.0336,0.045,0.0284,0.0205,0.0195,0.0078,0.0075,0.0073,-0.0005,-0.0006,-0.0006,-0.0007,-0.013,-0.0134,-0.0139,-0.0153,0,0,-0.0152,-0.0154,0,0,0,0,0,0,0,0,0.0343,0.0331,0.022,0.021,0.0198,0.0051,0.0087,-0.0002,-0.0005,0.0083,-0.0007,-0.0007,-0.007,-0.008,-0.0102,-0.0159,-0.0164,-0.0153,-0.0155,-0.0157,-0.0158,0,0,0,0,0,0,0,0.0351,0.0338,0.0213,0.0216,0.0202,0.0124,0.011,0.007,0.0023,0.0075,0.0066,0.0025,-0.0074,-0.0098,-0.0106,-0.0166,-0.0153,-0.0156,-0.0159,-0.0161,-0.0251,-0.025,0,0,0,0,0,0,0.0363,0.0347,0.0219,0.0206,0.0257,0.0121,0.0106,0.0108,0.0021,0.0003,0.0026,0.0022,-0.009,-0.01,-0.011,-0.0114,-0.0157,-0.0161,-0.0164,-0.0251,-0.0251,-0.025,0,0,0,0,0,0,0.0368,0.0355,0.0228,0.026,0.0237,0.0119,0.0122,0.0104,0.0068,-0.0019,-0.0033,0.0006,-0.0091,-0.0104,-0.0144,-0.012,-0.0163,-0.0167,-0.0251,-0.0251,-0.0251,-0.0132,0,0,0,0,0,0,0.0375,0.036,0.0347,0.0262,0.0235,0.0175,0.0121,0.01,0.0039,0.0032,-0.0041,-0.0053,-0.0092,-0.0137,-0.0148,-0.0127,-0.0171,-0.0252,-0.0251,-0.0251,-0.0136,-0.0128,-0.012,0,0,0,0,0,0.0382,0.0387,0.0349,0.033,0.023,0.0174,0.0156,0.0075,0.0039,0.0039,-0.0018,-0.0051,-0.0142,-0.014,-0.0153,-0.0133,-0.0252,-0.0251,-0.0251,-0.014,-0.0129,-0.012,0,0,0,0,0,0,0.0442,0.0375,0.0333,0.0312,0.0247,0.0157,0.0125,0.0075,0.0028,0.0003,-0.0051,-0.0065,-0.01,-0.0134,-0.0131,-0.016,-0.0202,-0.0204,-0.0113,-0.0104,-0.0096,-0.0121,-0.0174,0,0,0,0,0,0.0449,0.0428,0.0358,0.0323,0.0309,0.0216,0.0172,0.0114,0.0056,0.0032,0.0004,-0.0051,-0.0107,-0.0118,-0.0171,-0.0176,-0.0223,-0.0174,-0.0165,-0.0158,-0.019,-0.0219,-0.0216,-0.0249,-0.0249,-0.0249,0,0,0.0441,0.0403,0.038,0.0331,0.0275,0.0248,0.0193,0.0126,0.0104,0.0026,0.0022,-0.0034,-0.0111,-0.0126,-0.0141,-0.0146,-0.0168,-0.0157,-0.015,-0.0187,-0.0218,-0.0215,-0.0212,-0.0248,-0.0248,-0.0248,0,0,0.0431,0.0412,0.0398,0.0364,0.0278,0.024,0.0229,0.0167,0.0154,0.0122,0.0055,0.0017,-0.0031,-0.0073,-0.011,-0.0091,-0.0142,-0.0099,-0.0056,-0.0081,-0.0078,-0.0077,-0.0101,-0.0103,-0.0071,-0.0071,-0.0071,0,0.0422,0.0417,0.0378,0.0362,0.0335,0.0252,0.0242,0.0211,0.0145,0.0156,0.0133,0.0042,-0.0012,-0.0056,-0.0058,-0.0073,-0.01,-0.0077,-0.0068,-0.0068,-0.0069,-0.0094,-0.0098,-0.0065,-0.0066,-0.0066,-0.0067,0,0.0402,0.0402,0.04,0.0368,0.0336,0.0315,0.0272,0.0271,0.025,0.0224,0.0198,0.0121,0.0077,0.0058,-0.0006,-0.0031,-0.0053,-0.0067,-0.0085,-0.0058,-0.0087,-0.0092,-0.0057,-0.0059,-0.0061,-0.0062,0,0,0.0394,0.0396,0.0391,0.0406,0.0351,0.0333,0.0326,0.0327,0.0342,0.0294,0.0315,0.0212,0.0181,0.0131,0.0069,0.0031,0.0011,-0.0018,-0.0022,-0.0031,-0.0046,-0.0058,-0.0066,0.0008,0.0007,0.0006,-0.0053,0,0.0402,0.0422,0.0404,0.0414,0.0441,0.0401,0.0407,0.0376,0.0384,0.0399,0.0317,0.029,0.0211,0.0184,0.0137,0.0027,-0.0005,0.0027,-0.0086,-0.009,-0.0094,-0.0074,-0.0045,-0.0096,-0.0059,-0.006,-0.0061,0,0.0396,0.0427,0.0459,0.0499,0.0505,0.0495,0.0527,0.0511,0.0499,0.0501,0.0466,0.0405,0.032,0.025,0.0106,0.0134,0.0039,-0.0044,-0.0047,-0.0117,-0.0114,-0.0127,-0.0109,-0.0071,-0.007,-0.007,-0.0069,0,0.0433,0.0472,0.0521,0.0522,0.0535,0.0562,0.0563,0.0558,0.0578,0.0563,0.0573,0.0484,0.0432,0.0301,0.0136,0.0124,-0.0027,-0.0042,-0.0142,-0.0143,-0.0177,-0.018,-0.0152,-0.0152,-0.0152,-0.0152,-0.0152,0,0.0475,0.0512,0.0558,0.0579,0.0644,0.0614,0.0667,0.0671,0.0668,0.0709,0.0624,0.0629,0.0436,0.0338,0.0175,0.0006,0.0024,-0.0156,-0.0165,-0.0132,-0.013,-0.0168,-0.0169,-0.0154,-0.0154,-0.0153,-0.0153,0,0.0506,0.0526,0.0586,0.0638,0.0663,0.0695,0.0733,0.078,0.076,0.0807,0.0797,0.0732,0.061,0.0418,0.0211,0.0076,-0.0098,-0.0164,-0.0117,-0.0121,-0.0208,-0.0202,-0.0276,-0.0277,-0.0278,-0.0278,-0.0279,0,0.0529,0.0569,0.0632,0.0679,0.0718,0.077,0.0817,0.0821,0.0882,0.0887,0.0926,0.0823,0.0778,0.0471,0.0203,-0.0061,-0.0101,-0.0202,-0.0235,-0.0222,-0.0224,-0.0216,-0.021,-0.0221,-0.0221,-0.0221,-0.0221,0,0.0593,0.0601,0.0645,0.0749,0.0821,0.0889,0.0973,0.103,0.1046,0.1081,0.112,0.1074,0.0798,0.0535,0.0172,0.0001,-0.0158,-0.0212,-0.0204,-0.0193,-0.0176,-0.0175,-0.0169,-0.0222,-0.0222,-0.0222,-0.0222,-0.0222,0.063,0.0667,0.0728,0.0818,0.0903,0.1014,0.1081,0.1171,0.1243,0.1304,0.1266,0.1196,0.0907,0.0435,0.013,-0.0182,-0.0172,-0.0276,-0.0273,-0.0272,-0.0253,-0.0239,-0.0293,-0.0294,-0.0294,-0.0294,-0.0294,0,0.0711,0.0745,0.0817,0.0913,0.1013,0.1052,0.1189,0.1246,0.1353,0.1407,0.1406,0.1131,0.0823,0.0487,0.0015,-0.0264,-0.028,-0.0336,-0.0301,-0.0297,-0.0295,-0.0277,-0.0324,-0.0325,-0.0326,-0.0327,0,0,0.0745,0.0822,0.0838,0.0989,0.1071,0.1202,0.128,0.1366,0.1424,0.146,0.1424,0.1329,0.0927,0.0584,0.0203,-0.0066,-0.0111,-0.0108,-0.0051,0.004,0.0046,-0.0225,-0.019,0,0,0,0,0]}],[{"header":{"parameterUnit":"m.s-1","parameterCategory":2,"la1":30.2991,"la2":30.254,"lo1":-89.0895,"lo2":-89.0444,"dy":0.0017,"dx":0.0017,"nx":28,"ny":28,"refTime":"2023-09-06T21:00:00:Z","depth":"4","parameterNumber":2,"parameterNumberName":"U-component_of_CURRENTS"},"data":[0,0,0,0,0,0,0,0,0,0,0,0,0,0,0,0,0,0,0,0,0,0,0,0,0,0,0,0,0,0,0,0,0,0,0,0,0,0,0,0,0,0,0,0,0,0,0,0,0,0,0,0,0,0,0,0,0,0,0.115,0.1151,0,0.1228,0.1229,0.1229,0.1287,0.1288,0.1288,0.1289,0.1343,0.1344,0.1344,0,0,0,0,0,0,0,0,0,0,0,0,0,0.1075,0.1075,0.115,0.1151,0.1152,0.1228,0.1229,0.123,0.1287,0.1288,0.1288,0.1289,0.1342,0.1343,0.1345,0,0,0,0,0,0,0,0,0,0,0,0,0,0.1124,0.1076,0.1149,0.119,0.1195,0.1227,0.1229,0.123,0.1287,0.1288,0.1289,0.1289,0.1342,0.1343,0.1345,0.1335,0,0,0.1349,0.1349,0,0,0,0,0,0,0,0,0.1121,0.1127,0.1183,0.1188,0.1193,0.125,0.1222,0.1264,0.1287,0.1251,0.1289,0.129,0.1309,0.1313,0.1325,0.1338,0.134,0.1349,0.135,0.135,0.1351,0,0,0,0,0,0,0,0.1118,0.1124,0.118,0.1184,0.119,0.1213,0.1221,0.1231,0.1273,0.1254,0.1259,0.1269,0.1312,0.1324,0.1327,0.1341,0.1349,0.135,0.1351,0.1351,0.1457,0.1459,0,0,0,0,0,0,0.1108,0.112,0.1177,0.1182,0.116,0.1214,0.1222,0.123,0.1273,0.1281,0.1268,0.1271,0.1321,0.1325,0.1329,0.1393,0.135,0.1351,0.1352,0.1455,0.1457,0.1459,0,0,0,0,0,0,0.1106,0.1112,0.1174,0.1154,0.1164,0.1214,0.1222,0.1231,0.1276,0.1284,0.1292,0.1308,0.1322,0.1327,0.1369,0.1393,0.1352,0.1353,0.1452,0.1456,0.1458,0.1475,0,0,0,0,0,0,0.1103,0.1111,0.1116,0.1153,0.1165,0.1211,0.1221,0.1232,0.1279,0.1285,0.132,0.1324,0.1323,0.1367,0.137,0.1394,0.1354,0.145,0.1454,0.1457,0.1472,0.1478,0.1484,0,0,0,0,0,0.11,0.1114,0.1115,0.1123,0.1169,0.1212,0.1221,0.1258,0.128,0.1302,0.1333,0.1325,0.1394,0.137,0.1373,0.1397,0.1448,0.1453,0.1457,0.1469,0.1477,0.1483,0,0,0,0,0,0,0.1095,0.1122,0.1125,0.1148,0.1181,0.1223,0.1257,0.1276,0.1318,0.1339,0.1343,0.1349,0.1398,0.1401,0.1375,0.1444,0.1423,0.1428,0.1431,0.1438,0.1444,0.1462,0.1355,0,0,0,0,0,0.1089,0.1106,0.1135,0.1158,0.1181,0.1222,0.1247,0.1276,0.1315,0.1337,0.1354,0.1385,0.1414,0.143,0.1453,0.1482,0.1499,0.1506,0.1512,0.1517,0.1537,0.1579,0.159,0.1474,0.1474,0.1474,0,0,0.1095,0.1113,0.1123,0.1157,0.1195,0.123,0.1242,0.1302,0.1328,0.1334,0.1384,0.1407,0.143,0.1468,0.149,0.1475,0.1559,0.1523,0.1526,0.1544,0.1585,0.1596,0.1605,0.1477,0.1477,0.1476,0,0,0.1116,0.1136,0.1155,0.1186,0.124,0.1264,0.1287,0.1338,0.1363,0.1407,0.1424,0.1467,0.1501,0.1521,0.1535,0.1591,0.1592,0.1601,0.1637,0.1677,0.1686,0.1695,0.1726,0.1737,0.1599,0.1599,0.1599,0,0.112,0.1144,0.1171,0.1204,0.124,0.1283,0.1324,0.1349,0.1403,0.1427,0.1432,0.1511,0.1528,0.1575,0.1603,0.1602,0.1625,0.16,0.1683,0.1691,0.17,0.1729,0.1741,0.16,0.16,0.16,0.16,0,0.1151,0.1178,0.1208,0.1252,0.1292,0.1345,0.1383,0.1416,0.1453,0.148,0.1543,0.1566,0.1618,0.1625,0.1635,0.1703,0.1701,0.1684,0.1657,0.1712,0.174,0.1752,0.1602,0.1602,0.1601,0.1601,0,0,0.1147,0.1209,0.1223,0.1244,0.1328,0.136,0.1415,0.1468,0.1508,0.155,0.1603,0.1655,0.1685,0.1706,0.1715,0.1749,0.1826,0.1752,0.1753,0.177,0.1918,0.1813,0.1816,0.1822,0.1825,0.1827,0.1911,0,0.1167,0.1212,0.1254,0.1316,0.1347,0.1407,0.1457,0.1514,0.1557,0.1611,0.165,0.1712,0.1707,0.1745,0.178,0.183,0.1861,0.1805,0.1875,0.1878,0.1767,0.1828,0.1834,0.192,0.1923,0.1925,0.1926,0,0.1187,0.1211,0.1268,0.1337,0.1365,0.1414,0.1503,0.1554,0.1638,0.168,0.1742,0.1775,0.1856,0.1833,0.1933,0.1902,0.1925,0.1941,0.1944,0.1852,0.1796,0.1858,0.1948,0.1946,0.1945,0.1943,0.1942,0,0.1158,0.1225,0.1266,0.1294,0.138,0.1428,0.1491,0.1585,0.1639,0.1736,0.1792,0.1866,0.1934,0.1973,0.2025,0.1995,0.212,0.2072,0.1989,0.1982,0.204,0.2031,0.2134,0.2133,0.2133,0.2133,0.2133,0,0.1154,0.1186,0.1254,0.1277,0.1339,0.1425,0.1511,0.1575,0.1691,0.1767,0.1838,0.1893,0.1979,0.2047,0.2064,0.2078,0.2155,0.2018,0.2004,0.2045,0.2035,0.2048,0.2037,0.2136,0.2135,0.2135,0.2134,0,0.1111,0.1162,0.12,0.1289,0.1328,0.1377,0.1519,0.1572,0.1699,0.1797,0.1842,0.1961,0.2052,0.2105,0.2188,0.2129,0.2146,0.2123,0.2186,0.2171,0.1969,0.1958,0.2034,0.2032,0.2029,0.2027,0.2026,0,0.108,0.1098,0.1191,0.1223,0.1269,0.1356,0.1426,0.1565,0.1626,0.1815,0.1854,0.1988,0.2047,0.2078,0.2145,0.2167,0.2133,0.2123,0.2023,0.1984,0.1963,0.1956,0.1949,0.2022,0.2021,0.202,0.202,0,0.1009,0.1061,0.1097,0.1169,0.1236,0.1289,0.1397,0.1437,0.1606,0.1731,0.1819,0.1868,0.1966,0.2014,0.2056,0.2058,0.2119,0.2096,0.21,0.2006,0.1969,0.1949,0.1945,0.2012,0.2013,0.2014,0.2014,0,0.0962,0.0965,0.1036,0.1097,0.1169,0.1203,0.1266,0.1354,0.1441,0.1653,0.1683,0.1824,0.1953,0.1961,0.1998,0.2002,0.1955,0.187,0.1884,0.1894,0.1809,0.1738,0.1716,0,0,0,0,0,0.0902,0.0912,0.0956,0.1007,0.1079,0.1129,0.1242,0.1312,0.1476,0.15,0.159,0.167,0.1741,0.1814,0.1787,0.1928,0.1954,0.1887,0.1861,0.1965,0.1975,0.1886,0,0,0,0,0,0,0.086,0.0896,0.0923,0.0933,0.0959,0.1019,0.1088,0.1195,0.1217,0.139,0.1436,0.1569,0.1657,0.174,0.1755,0.1777,0.1727,0.1983,0.1979,0.196,0.1969,0.1976,0.1888,0,0,0,0,0]},{"header":{"parameterUnit":"m.s-1","parameterCategory":2,"la1":30.2991,"la2":30.254,"lo1":-89.0895,"lo2":-89.0444,"dy":0.0017,"dx":0.0017,"nx":28,"ny":28,"refTime":"2023-09-06T21:00:00:Z","depth":"4","parameterNumber":3,"parameterNumberName":"V-component_of_CURRENTS"},"data":[0,0,0,0,0,0,0,0,0,0,0,0,0,0,0,0,0,0,0,0,0,0,0,0,0,0,0,0,0,0,0,0,0,0,0,0,0,0,0,0,0,0,0,0,0,0,0,0,0,0,0,0,0,0,0,0,0,0,0.0413,0.0412,0,0.0362,0.0362,0.0361,0.0328,0.0328,0.0328,0.0328,0.0276,0.0275,0.0274,0,0,0,0,0,0,0,0,0,0,0,0,0,0.0423,0.0423,0.0413,0.0412,0.0412,0.0363,0.0362,0.0361,0.0328,0.0328,0.0328,0.0328,0.0277,0.0275,0.0274,0,0,0,0,0,0,0,0,0,0,0,0,0,0.0399,0.0423,0.0413,0.0391,0.0389,0.0363,0.0362,0.0361,0.0328,0.0328,0.0328,0.0328,0.0277,0.0275,0.0273,0.0262,0,0,0.0267,0.0266,0,0,0,0,0,0,0,0,0.04,0.0398,0.0395,0.0393,0.039,0.0353,0.0346,0.0328,0.0328,0.0349,0.0328,0.0328,0.0303,0.0299,0.0287,0.0259,0.0257,0.0267,0.0266,0.0265,0.0264,0,0,0,0,0,0,0,0.0402,0.04,0.0391,0.0394,0.0391,0.0364,0.0361,0.0342,0.0326,0.0347,0.0345,0.0343,0.0302,0.0289,0.0286,0.0256,0.0267,0.0265,0.0264,0.0263,0.0216,0.0216,0,0,0,0,0,0,0.0415,0.0402,0.0392,0.0389,0.0397,0.0365,0.0361,0.0364,0.0326,0.0321,0.0343,0.0342,0.0293,0.0288,0.0284,0.0293,0.0265,0.0263,0.0262,0.0216,0.0216,0.0215,0,0,0,0,0,0,0.0416,0.0415,0.0394,0.0395,0.0391,0.0365,0.0368,0.0363,0.0355,0.0323,0.0317,0.0342,0.0292,0.0287,0.0273,0.029,0.0262,0.026,0.0216,0.0216,0.0216,0.0295,0,0,0,0,0,0,0.0416,0.0416,0.0425,0.0397,0.0392,0.0387,0.0368,0.0362,0.0354,0.0352,0.032,0.0314,0.0292,0.0276,0.0271,0.0286,0.0259,0.0216,0.0216,0.0216,0.0292,0.0297,0.0302,0,0,0,0,0,0.0417,0.0431,0.0426,0.0425,0.0405,0.0388,0.0383,0.0362,0.0354,0.0354,0.0332,0.0316,0.0271,0.0275,0.0268,0.0284,0.0216,0.0216,0.0216,0.029,0.0296,0.0302,0,0,0,0,0,0,0.0436,0.0428,0.0423,0.0433,0.0416,0.0383,0.0382,0.0368,0.0349,0.0344,0.0318,0.0311,0.0305,0.0278,0.0282,0.0266,0.024,0.0238,0.0298,0.0304,0.0309,0.0314,0.0257,0,0,0,0,0,0.0447,0.0459,0.0438,0.0446,0.044,0.0413,0.0405,0.0386,0.0365,0.0356,0.0342,0.0317,0.0298,0.0289,0.0267,0.0261,0.022,0.0263,0.0268,0.0272,0.027,0.0225,0.0226,0.0215,0.0215,0.0215,0,0,0.0456,0.0454,0.046,0.0452,0.0436,0.0431,0.0408,0.0393,0.0395,0.0353,0.0361,0.0336,0.0299,0.0294,0.0288,0.0275,0.0253,0.0272,0.0277,0.0272,0.0225,0.0226,0.0227,0.0215,0.0215,0.0215,0,0,0.0473,0.0478,0.0488,0.0477,0.0458,0.0446,0.0446,0.0421,0.0419,0.0415,0.0387,0.0371,0.035,0.0327,0.0312,0.0326,0.0281,0.0321,0.0352,0.0309,0.031,0.031,0.026,0.0255,0.0323,0.0323,0.0323,0,0.0485,0.0495,0.0487,0.0485,0.0483,0.0458,0.0459,0.0453,0.0431,0.0433,0.0427,0.0388,0.0365,0.0347,0.0356,0.034,0.0303,0.0339,0.0317,0.0316,0.0315,0.0263,0.0257,0.0327,0.0326,0.0326,0.0325,0,0.0492,0.0507,0.0511,0.0512,0.0507,0.0504,0.0493,0.0497,0.0497,0.0487,0.0479,0.0444,0.0418,0.0413,0.0393,0.0375,0.0348,0.0332,0.0308,0.0321,0.0266,0.0258,0.0332,0.0331,0.0329,0.0329,0,0,0.0498,0.0518,0.0518,0.0534,0.0521,0.0521,0.0533,0.0537,0.0549,0.0532,0.0539,0.0511,0.0488,0.0467,0.0436,0.0404,0.0372,0.0372,0.0368,0.0333,0.027,0.0235,0.0223,0.0355,0.0354,0.0354,0.0235,0,0.0507,0.0531,0.0533,0.056,0.0571,0.0564,0.0582,0.0578,0.0581,0.0585,0.0546,0.054,0.051,0.0501,0.0464,0.0394,0.0354,0.0405,0.0253,0.0248,0.0224,0.0213,0.0351,0.0229,0.0227,0.0225,0.0224,0,0.0498,0.0526,0.0556,0.06,0.0604,0.0622,0.0647,0.0657,0.0649,0.0647,0.0622,0.0591,0.0543,0.0519,0.0398,0.0432,0.0359,0.0301,0.0295,0.0228,0.0198,0.0209,0.0209,0.021,0.0211,0.0212,0.0213,0,0.0496,0.054,0.0578,0.0584,0.0623,0.065,0.0675,0.0679,0.0698,0.0687,0.0687,0.062,0.059,0.049,0.0374,0.0386,0.023,0.0227,0.0121,0.0117,0.0151,0.0152,0.0138,0.0138,0.0138,0.0139,0.0139,0,0.0494,0.0527,0.0592,0.0609,0.067,0.0679,0.0732,0.0743,0.0752,0.0768,0.0723,0.0704,0.0583,0.0484,0.0374,0.0214,0.0222,0.0117,0.0083,0.0186,0.0192,0.0145,0.0147,0.0134,0.0135,0.0136,0.0137,0,0.048,0.0515,0.057,0.0639,0.0671,0.0712,0.0786,0.0816,0.0818,0.0834,0.0832,0.076,0.0626,0.0484,0.031,0.0215,0.0068,0.0009,0.0119,0.0094,-0.0016,-0.0009,-0.012,-0.0122,-0.0124,-0.0125,-0.0127,0,0.0481,0.0505,0.0596,0.0643,0.0687,0.076,0.0808,0.0846,0.0874,0.0861,0.0863,0.0755,0.0684,0.0407,0.0258,0.0023,-0.0002,-0.008,-0.0036,-0.0022,-0.0044,-0.0033,-0.0023,-0.013,-0.013,-0.0131,-0.0131,0,0.0493,0.0521,0.0569,0.0661,0.0735,0.0808,0.0883,0.0907,0.0933,0.0939,0.0876,0.0747,0.0588,0.0391,0.0203,0.0043,-0.0029,-0.01,-0.0096,-0.0056,-0.0035,-0.0053,-0.0041,-0.0138,-0.0137,-0.0136,-0.0136,0,0.0509,0.0541,0.0604,0.068,0.0767,0.0833,0.0875,0.0909,0.0933,0.0921,0.0893,0.0737,0.0653,0.0399,0.0226,0.0059,0.0027,-0.0012,-0.0014,-0.0008,0.0062,0.0108,0.0012,0,0,0,0,0,0.0527,0.0558,0.0626,0.0706,0.0783,0.0834,0.0912,0.0943,0.0971,0.093,0.0914,0.0765,0.0511,0.0406,0.023,0.0186,-0.0007,-0.0025,-0.0053,-0.0174,-0.0167,-0.0105,0,0,0,0,0,0,0.054,0.06,0.0619,0.0706,0.076,0.0848,0.0897,0.092,0.0897,0.09,0.0766,0.0716,0.0468,0.0604,0.0223,0.0174,0.0131,-0.0137,-0.0141,-0.0178,-0.0172,-0.0165,-0.01,0,0,0,0,0]}]]